Weather History for Ogden, UT

Change the Weather History Date:

Saturday, March 29, 2014

  Actual Average Record
Temperature  
Mean Temperature 52 °F -  
Max Temperature 62 °F 53 °F 76 °F (1943)
Min Temperature 44 °F 31 °F 17 °F (1975)
Degree Days  
Heating Degree Days 12    
Growing Degree Days 2 (Base 50)    
Moisture  
Dew Point 26 °F    
Average Humidity 35    
Maximum Humidity 48    
Minimum Humidity 26    
Precipitation  
Precipitation 0.00 in - - ()
Sea Level Pressure  
Sea Level Pressure 29.88 in    
Wind  
Wind Speed 13 mph (South)    
Max Wind Speed 21 mph    
Max Gust Speed 28 mph    
Visibility 10 miles    
Events      
Averages and records for this station are not official NWS values.
T = Trace of Precipitation, MM = Missing Value Source: NWS Daily Summary

Daily Weather History Graph

Daily Weather History Graph

Search for Another Location

Airport:

Trip Planner

Search our weather history database for the weather conditions in past years. The results will help you decide how hot, cold, wet, or windy it might be!

Date:

Astronomy

Mar. 29, 2014 Rise Set
Actual Time 7:16 AM MDT 7:50 PM MDT
Civil Twilight 6:48 AM MDT 8:17 PM MDT
Nautical Twilight 6:15 AM MDT 8:50 PM MDT
Astronomical Twilight 5:42 AM MDT 9:24 PM MDT
Moon 6:27 AM MDT (3/29) 6:59 PM MDT (3/29)
Length of Visible Light 13h 29m
Length of Day
12h 33m
Waning Crescent, 1% of the Moon is Illuminated
Mar 29
Waning Crescent
Mar 30
New
Apr 7
First Quarter
Apr 15
Full
Apr 22
Last Quarter

Hourly Weather History & Observations

Time (MDT) Temp. Windchill Dew Point Humidity Pressure Visibility Wind Dir Wind Speed Gust Speed Precip Events Conditions
12:53 AM 45.0 °F 39.7 °F 26.1 °F 48% 30.04 in 10.0 mi South 10.4 mph - N/A   Clear
1:53 AM 44.1 °F 38.1 °F 25.0 °F 47% 30.02 in 10.0 mi South 11.5 mph - N/A   Clear
2:53 AM 44.1 °F 37.7 °F 24.1 °F 45% 30.02 in 10.0 mi SSE 12.7 mph - N/A   Clear
3:53 AM 44.1 °F 37.4 °F 24.1 °F 45% 29.98 in 10.0 mi SSE 13.8 mph - N/A   Overcast
4:53 AM 45.0 °F 38.2 °F 24.1 °F 44% 29.97 in 10.0 mi SSE 15.0 mph - N/A   Overcast
5:53 AM 46.0 °F 41.0 °F 24.1 °F 42% 29.96 in 10.0 mi SSE 10.4 mph - N/A   Overcast
6:53 AM 46.9 °F - 24.1 °F 41% 29.95 in 10.0 mi SSE 9.2 mph - N/A   Mostly Cloudy
7:53 AM 51.1 °F - 23.0 °F 33% 29.95 in 10.0 mi South 19.6 mph - N/A   Overcast
8:53 AM 52.0 °F - 24.1 °F 34% 29.96 in 10.0 mi South 17.3 mph - N/A   Mostly Cloudy
9:53 AM 54.0 °F - 24.1 °F 31% 29.96 in 10.0 mi South 18.4 mph 26.5 mph N/A   Scattered Clouds
10:53 AM 57.9 °F - 25.0 °F 28% 29.96 in 10.0 mi South 20.7 mph 27.6 mph N/A   Clear
11:53 AM 60.1 °F - 27.0 °F 28% 29.94 in 10.0 mi South 13.8 mph 21.9 mph N/A   Clear
12:53 PM 59.0 °F - 26.1 °F 28% 29.92 in 10.0 mi South 18.4 mph 23.0 mph N/A   Clear
1:53 PM 61.0 °F - 26.1 °F 26% 29.88 in 10.0 mi South 19.6 mph 27.6 mph N/A   Partly Cloudy
2:53 PM 61.0 °F - 26.1 °F 26% 29.86 in 10.0 mi South 19.6 mph - N/A   Scattered Clouds
3:53 PM 61.0 °F - 26.1 °F 26% 29.82 in 10.0 mi South 17.3 mph - N/A   Clear
4:53 PM 61.0 °F - 27.0 °F 27% 29.79 in 10.0 mi South 16.1 mph 23.0 mph N/A   Clear
5:53 PM 60.1 °F - 27.0 °F 28% 29.77 in 10.0 mi South 15.0 mph - N/A   Clear
6:53 PM 57.9 °F - 27.0 °F 31% 29.75 in 10.0 mi South 12.7 mph - N/A   Clear
7:53 PM 55.9 °F - 27.0 °F 33% 29.73 in 10.0 mi SSE 9.2 mph - N/A   Scattered Clouds
8:53 PM 54.0 °F - 27.0 °F 35% 29.72 in 10.0 mi SSE 9.2 mph - N/A   Clear
9:53 PM 53.1 °F - 28.0 °F 38% 29.72 in 10.0 mi WNW 8.1 mph - N/A   Overcast
10:53 PM 54.0 °F - 28.0 °F 37% 29.69 in 10.0 mi SE 3.5 mph - N/A   Scattered Clouds
11:53 PM 55.9 °F - 26.1 °F 32% 29.66 in 10.0 mi SSW 17.3 mph - N/A   Clear